QPF
0.06 0.04 0.04 0.04 0.04 0.04 0.04 0.04 0.06 0.07 0.06 0.05 0.04 0.04 0.03 0.02 0.02 0.02 0.02 0.03 0.03 0.02 0.01 0.01 0.01 0.01 0.01 0.01 0.01 0.02 0.03 0.02 0.02 0.03 0.03 0.03 0.04 0.05 0.05 0.04 0.04 0.03 0.03
0.06 0.05 0.04 0.04 0.04 0.05 0.07 0.08 0.08 0.06 0.06 0.06 0.06 0.05 0.04 0.02 0.02 0.01 0.01 0.02 0.02 0.02 0.02 0.02 0.02 0.02 0.02 0.02 0.01 0.02 0.02 0.03 0.03 0.03 0.03 0.02 0.03 0.03 0.04 0.03 0.03 0.02 0.02
0.03 0.04 0.04 0.04 0.04 0.06 0.06 0.07 0.07 0.09 0.11 0.09 0.07 0.06 0.04 0.03 0.03 0.02 0.03 0.03 0.02 0.02 0.02 0.01 0.02 0.03 0.02 0.02 0.02 0.01 0.02 0.03 0.04 0.04 0.03 0.02 0.02 0.03 0.03 0.03 0.03 0.02 0.03
0.04 0.05 0.04 0.04 0.04 0.04 0.05 0.07 0.08 0.12 0.12 0.09 0.07 0.06 0.05 0.05 0.04 0.03 0.03 0.03 0.02 0.02 0.01 0.01 0.01 0.02 0.02 0.02 0.02 0.02 0.02 0.03 0.03 0.04 0.03 0.02 0.03 0.03 0.03 0.02 0.02 0.02 0.02
0.03 0.02 0.03 0.03 0.04 0.05 0.07 0.09 0.09 0.08 0.07 0.06 0.05 0.06 0.05 0.04 0.04 0.04 0.03 0.02 0.01 0.01 0.01 0.01 0.01 0.02 0.03 0.03 0.03 0.03 0.04 0.04 0.04 0.04 0.03 0.02 0.01 0.02 0.03 0.02 0.03 0.02 0.02
0.03 0.03 0.02 0.03 0.03 0.05 0.05 0.06 0.09 0.10 0.08 0.06 0.05 0.05 0.04 0.04 0.05 0.05 0.04 0.03 0.02 0.01 0.01 0.01 0.02 0.02 0.03 0.03 0.04 0.04 0.04 0.04 0.04 0.03 0.03 0.02 0.01 0.01 0.02 0.03 0.03 0.02 0.02
0.03 0.02 0.02 0.02 0.04 0.04 0.04 0.06 0.11 0.15 0.10 0.06 0.05 0.05 0.04 0.05 0.04 0.04 0.05 0.04 0.03 0.02 0.01 0.01 0.01 0.01 0.02 0.02 0.03 0.03 0.03 0.03 0.03 0.03 0.02 0.01 0.01 0.01 0.02 0.02 0.03 0.03 0.03
0.02 0.01 0.01 0.02 0.03 0.03 0.04 0.05 0.06 0.09 0.08 0.05 0.04 0.04 0.04 0.04 0.04 0.04 0.03 0.03 0.02 0.01 0.01 0.01 0.01 0.01 0.02 0.02 0.03 0.02 0.02 0.02 0.03 0.03 0.02 0.01 0.01 0.01 0.02 0.02 0.03 0.03 0.03
0.01 0.01 0.01 0.01 0.01 0.02 0.02 0.03 0.03 0.03 0.03 0.02 0.02 0.02 0.02 0.03 0.04 0.04 0.04 0.03 0.02 0.01 0.01 0.01 0.01 0.01 0.02 0.03 0.03 0.03 0.02 0.02 0.01 0.01 0.01 0.02 0.02 0.02 0.02 0.04 0.04 0.04 0.03
0.01 0.01 0.01 0.01 0.01 0.01 0.01 0.01 0.01 0.01 0.01 0.02 0.02 0.02 0.02 0.02 0.03 0.03 0.03 0.01 0.01 0.01 0.01 0.01 0.01 0.02 0.02 0.03 0.03 0.03 0.02 0.01 0.01 0.01 0.01 0.01 0.01 0.02 0.03 0.03 0.03 0.03 0.03
0.02 0.01 0.01 0.01 0.01 0.01 0.01 0.01 0.01 0.01 0.01 0.01 0.01 0.01 0.01 0.01 0.01 0.02 0.02 0.01 0.01 0.01 0.01 0.01 0.02 0.03 0.03 0.04 0.03 0.02 0.01 0.01 0.01 0.01 0.01 0.01 0.01 0.02 0.02 0.02 0.01 0.02 0.02
0.02 0.02 0.02 0.02 0.02 0.02 0.02 0.02 0.02 0.02 0.01 0.02 0.02 0.01 0.01 0.02 0.02 0.02 0.01 0.02 0.02 0.02 0.01 0.01 0.01 0.02 0.02 0.02 0.02 0.02 0.02 0.02 0.02 0.01 0.01 0.01 0.01 0.01 0.01 0.01 0.02 0.02 0.02
0.03 0.04 0.04 0.04 0.04 0.04 0.04 0.03 0.03 0.02 0.02 0.02 0.02 0.02 0.02 0.02 0.03 0.02 0.02 0.03 0.04 0.04 0.03 0.01 0.01 0.02 0.02 0.02 0.03 0.02 0.01 0.01 0.01 0.01 0.01 0.01 0.01 0.01 0.01 0.02 0.02 0.03 0.04
0.03 0.04 0.04 0.05 0.04 0.04 0.04 0.04 0.03 0.03 0.03 0.02 0.02 0.02 0.01 0.02 0.03 0.03 0.03 0.01 0.01 0.01 0.01 0.01 0.02 0.03 0.03 0.03 0.02 0.01 0.00 0.00 0.00 0.00 0.01 0.01 0.01 0.01 0.02 0.02 0.02 0.03 0.03
0.05 0.05 0.05 0.06 0.06 0.07 0.07 0.06 0.05 0.04 0.03 0.03 0.02 0.02 0.01 0.01 0.02 0.02 0.02 0.01 0.01 0.01 0.01 0.01 0.01 0.03 0.03 0.02 0.01 0.00 0.00 0.00 0.00 0.01 0.01 0.01 0.01 0.02 0.02 0.02 0.02 0.02 0.02
0.05 0.06 0.07 0.08 0.08 0.08 0.09 0.08 0.07 0.07 0.05 0.04 0.04 0.03 0.02 0.01 0.02 0.02 0.01 0.01 0.01 0.01 0.01 0.00 0.00 0.02 0.03 0.02 0.01 0.00 0.00 0.00 0.00 0.00 0.01 0.01 0.01 0.02 0.02 0.02 0.02 0.02 0.01
0.04 0.04 0.03 0.03 0.03 0.03 0.03 0.03 0.03 0.03 0.03 0.04 0.04 0.04 0.03 0.02 0.01 0.01 0.01 0.01 0.02 0.03 0.02 0.01 0.01 0.01 0.03 0.02 0.01 0.01 0.01 0.01 0.01 0.01 0.01 0.01 0.01 0.01 0.03 0.03 0.02 0.02 0.01
0.02 0.02 0.02 0.01 0.01 0.01 0.01 0.01 0.01 0.01 0.01 0.01 0.02 0.02 0.02 0.01 0.01 0.01 0.02 0.02 0.02 0.02 0.02 0.02 0.01 0.02 0.02 0.02 0.01 0.01 0.01 0.01 0.01 0.01 0.01 0.01 0.01 0.01 0.02 0.03 0.02 0.02 0.01
0.02 0.02 0.02 0.02 0.01 0.01 0.01 0.01 0.01 0.01 0.01 0.02 0.02 0.02 0.02 0.02 0.02 0.02 0.03 0.04 0.02 0.01 0.02 0.02 0.02 0.02 0.01 0.01 0.01 0.01 0.01 0.01 0.02 0.02 0.01 0.01 0.01 0.01 0.01 0.03 0.03 0.02 0.02
0.01 0.02 0.02 0.02 0.02 0.01 0.01 0.01 0.02 0.02 0.02 0.02 0.02 0.02 0.02 0.01 0.02 0.02 0.02 0.03 0.02 0.02 0.02 0.02 0.03 0.03 0.02 0.01 0.01 0.01 0.02 0.02 0.02 0.02 0.02 0.02 0.02 0.02 0.02 0.02 0.03 0.02 0.02
0.01 0.02 0.02 0.02 0.03 0.03 0.02 0.02 0.02 0.02 0.03 0.03 0.02 0.02 0.01 0.02 0.02 0.03 0.03 0.03 0.03 0.02 0.02 0.02 0.04 0.03 0.02 0.02 0.02 0.02 0.02 0.02 0.02 0.02 0.02 0.02 0.02 0.03 0.03 0.03 0.04 0.04 0.03
0.02 0.03 0.03 0.03 0.02 0.02 0.02 0.03 0.03 0.02 0.02 0.03 0.03 0.02 0.02 0.02 0.02 0.02 0.02 0.02 0.02 0.03 0.03 0.03 0.04 0.03 0.02 0.02 0.02 0.02 0.02 0.03 0.03 0.03 0.03 0.03 0.03 0.03 0.04 0.05 0.05 0.05 0.04
0.02 0.03 0.03 0.03 0.03 0.04 0.03 0.03 0.03 0.04 0.03 0.03 0.03 0.03 0.02 0.02 0.02 0.02 0.02 0.02 0.02 0.03 0.03 0.04 0.03 0.03 0.02 0.02 0.02 0.02 0.03 0.04 0.05 0.05 0.05 0.05 0.04 0.04 0.04 0.05 0.06 0.07 0.06
0.02 0.03 0.04 0.03 0.03 0.03 0.03 0.03 0.04 0.04 0.03 0.03 0.03 0.03 0.03 0.02 0.02 0.02 0.02 0.02 0.03 0.03 0.03 0.04 0.03 0.03 0.03 0.04 0.04 0.03 0.03 0.04 0.06 0.07 0.09 0.09 0.07 0.06 0.06 0.08 0.09 0.08 0.07
0.02 0.03 0.03 0.03 0.03 0.04 0.04 0.03 0.03 0.03 0.02 0.02 0.02 0.02 0.02 0.02 0.02 0.03 0.03 0.03 0.03 0.03 0.03 0.03 0.03 0.04 0.03 0.05 0.05 0.03 0.03 0.03 0.03 0.04 0.06 0.08 0.09 0.09 0.10 0.11 0.10 0.08 0.07
0.01 0.01 0.02 0.02 0.02 0.02 0.02 0.02 0.02 0.02 0.02 0.01 0.01 0.01 0.01 0.02 0.02 0.03 0.03 0.02 0.03 0.03 0.03 0.03 0.03 0.03 0.03 0.03 0.03 0.03 0.03 0.02 0.03 0.04 0.05 0.05 0.05 0.06 0.07 0.08 0.09 0.10 0.09
MSLP
1009.76 1010.19 1010.62 1011.00 1011.29 1011.46 1011.54 1011.55 1011.53 1011.54 1011.59 1011.69 1011.83 1011.97 1012.10 1012.16 1012.15 1012.08 1011.97 1011.85 1011.78 1011.80 1011.93 1012.19 1012.55 1013.00 1013.48 1013.95 1014.35 1014.67 1014.88 1014.97 1014.96 1014.87 1014.70 1014.49 1014.26 1014.02 1013.78 1013.57 1013.39 1013.26 1013.18
1009.43 1009.85 1010.27 1010.64 1010.92 1011.10 1011.20 1011.25 1011.29 1011.35 1011.46 1011.62 1011.82 1012.02 1012.20 1012.31 1012.35 1012.31 1012.22 1012.12 1012.05 1012.05 1012.16 1012.37 1012.68 1013.08 1013.51 1013.94 1014.34 1014.66 1014.89 1015.02 1015.06 1015.02 1014.91 1014.76 1014.56 1014.34 1014.11 1013.88 1013.65 1013.45 1013.29
1009.26 1009.69 1010.10 1010.45 1010.71 1010.88 1010.98 1011.05 1011.11 1011.22 1011.38 1011.60 1011.86 1012.12 1012.36 1012.54 1012.64 1012.67 1012.63 1012.57 1012.52 1012.51 1012.59 1012.77 1013.02 1013.35 1013.72 1014.09 1014.44 1014.73 1014.95 1015.11 1015.19 1015.20 1015.16 1015.07 1014.93 1014.76 1014.56 1014.34 1014.10 1013.85 1013.62
1009.17 1009.63 1010.03 1010.37 1010.60 1010.75 1010.84 1010.91 1010.99 1011.12 1011.32 1011.59 1011.90 1012.23 1012.53 1012.79 1012.96 1013.06 1013.09 1013.08 1013.07 1013.09 1013.16 1013.30 1013.51 1013.76 1014.05 1014.35 1014.62 1014.86 1015.06 1015.20 1015.30 1015.36 1015.37 1015.35 1015.29 1015.18 1015.04 1014.85 1014.62 1014.36 1014.09
1009.03 1009.52 1009.94 1010.26 1010.48 1010.61 1010.68 1010.75 1010.84 1011.00 1011.23 1011.54 1011.90 1012.28 1012.65 1012.97 1013.22 1013.39 1013.50 1013.56 1013.60 1013.66 1013.74 1013.86 1014.03 1014.23 1014.44 1014.65 1014.85 1015.02 1015.16 1015.27 1015.36 1015.44 1015.49 1015.53 1015.54 1015.51 1015.44 1015.30 1015.12 1014.87 1014.59
1008.68 1009.22 1009.65 1009.98 1010.19 1010.32 1010.40 1010.48 1010.60 1010.78 1011.05 1011.40 1011.81 1012.24 1012.66 1013.03 1013.35 1013.59 1013.77 1013.90 1014.00 1014.10 1014.21 1014.34 1014.48 1014.64 1014.79 1014.92 1015.04 1015.13 1015.21 1015.27 1015.34 1015.41 1015.49 1015.58 1015.65 1015.69 1015.69 1015.62 1015.49 1015.30 1015.03
1008.02 1008.60 1009.06 1009.41 1009.64 1009.80 1009.91 1010.04 1010.21 1010.44 1010.76 1011.16 1011.61 1012.07 1012.53 1012.94 1013.30 1013.59 1013.83 1014.02 1014.18 1014.33 1014.49 1014.64 1014.78 1014.92 1015.03 1015.11 1015.16 1015.18 1015.20 1015.21 1015.24 1015.29 1015.38 1015.49 1015.60 1015.70 1015.76 1015.77 1015.71 1015.58 1015.37
1007.03 1007.64 1008.13 1008.51 1008.80 1009.01 1009.20 1009.41 1009.66 1009.98 1010.37 1010.82 1011.31 1011.81 1012.28 1012.71 1013.09 1013.40 1013.67 1013.91 1014.12 1014.33 1014.52 1014.71 1014.88 1015.02 1015.12 1015.18 1015.19 1015.17 1015.13 1015.09 1015.08 1015.11 1015.18 1015.29 1015.43 1015.57 1015.69 1015.76 1015.77 1015.71 1015.57
1005.82 1006.42 1006.94 1007.37 1007.72 1008.03 1008.34 1008.66 1009.04 1009.46 1009.94 1010.45 1010.98 1011.49 1011.96 1012.38 1012.75 1013.07 1013.35 1013.61 1013.85 1014.10 1014.34 1014.58 1014.78 1014.95 1015.07 1015.13 1015.13 1015.08 1015.01 1014.95 1014.90 1014.90 1014.96 1015.06 1015.20 1015.36 1015.52 1015.64 1015.71 1015.72 1015.65
1004.54 1005.12 1005.65 1006.13 1006.58 1007.01 1007.45 1007.92 1008.43 1008.97 1009.54 1010.11 1010.67 1011.18 1011.63 1012.03 1012.36 1012.65 1012.92 1013.17 1013.43 1013.71 1013.99 1014.27 1014.53 1014.74 1014.89 1014.97 1014.98 1014.94 1014.87 1014.79 1014.73 1014.71 1014.74 1014.83 1014.97 1015.14 1015.31 1015.46 1015.58 1015.65 1015.64
1003.42 1003.96 1004.49 1005.02 1005.56 1006.11 1006.69 1007.30 1007.94 1008.60 1009.25 1009.87 1010.44 1010.93 1011.35 1011.69 1011.97 1012.21 1012.44 1012.67 1012.93 1013.22 1013.53 1013.85 1014.14 1014.40 1014.60 1014.72 1014.77 1014.75 1014.70 1014.62 1014.56 1014.53 1014.55 1014.63 1014.75 1014.91 1015.09 1015.26 1015.41 1015.52 1015.58
1002.64 1003.13 1003.66 1004.22 1004.83 1005.49 1006.19 1006.92 1007.67 1008.41 1009.11 1009.75 1010.30 1010.76 1011.12 1011.39 1011.60 1011.78 1011.96 1012.16 1012.40 1012.69 1013.01 1013.35 1013.68 1013.97 1014.21 1014.37 1014.46 1014.49 1014.46 1014.41 1014.37 1014.34 1014.36 1014.43 1014.54 1014.70 1014.87 1015.05 1015.21 1015.35 1015.45
1002.31 1002.75 1003.26 1003.85 1004.51 1005.24 1006.01 1006.82 1007.62 1008.40 1009.11 1009.73 1010.24 1010.63 1010.91 1011.11 1011.25 1011.37 1011.49 1011.65 1011.86 1012.13 1012.45 1012.79 1013.14 1013.45 1013.72 1013.91 1014.04 1014.10 1014.12 1014.10 1014.08 1014.08 1014.11 1014.19 1014.30 1014.45 1014.62 1014.80 1014.97 1015.13 1015.26
1002.44 1002.82 1003.31 1003.91 1004.59 1005.34 1006.14 1006.96 1007.77 1008.52 1009.18 1009.74 1010.17 1010.49 1010.69 1010.81 1010.88 1010.93 1011.00 1011.12 1011.31 1011.55 1011.85 1012.18 1012.51 1012.83 1013.10 1013.32 1013.47 1013.56 1013.61 1013.64 1013.66 1013.69 1013.74 1013.84 1013.96 1014.12 1014.29 1014.48 1014.66 1014.83 1014.98
1002.91 1003.26 1003.73 1004.31 1004.98 1005.72 1006.49 1007.27 1008.01 1008.68 1009.25 1009.71 1010.04 1010.26 1010.37 1010.42 1010.43 1010.43 1010.47 1010.55 1010.70 1010.92 1011.19 1011.49 1011.79 1012.08 1012.34 1012.55 1012.71 1012.82 1012.90 1012.97 1013.03 1013.10 1013.20 1013.32 1013.47 1013.65 1013.84 1014.04 1014.24 1014.43 1014.61
1003.56 1003.90 1004.35 1004.90 1005.53 1006.21 1006.91 1007.59 1008.22 1008.77 1009.22 1009.55 1009.77 1009.89 1009.92 1009.90 1009.86 1009.84 1009.84 1009.91 1010.03 1010.21 1010.44 1010.69 1010.95 1011.20 1011.42 1011.60 1011.75 1011.87 1011.98 1012.07 1012.18 1012.30 1012.44 1012.61 1012.80 1013.01 1013.23 1013.46 1013.68 1013.90 1014.10
1004.20 1004.53 1004.96 1005.48 1006.05 1006.65 1007.25 1007.81 1008.30 1008.71 1009.02 1009.23 1009.34 1009.36 1009.32 1009.26 1009.19 1009.14 1009.13 1009.17 1009.27 1009.41 1009.59 1009.79 1009.99 1010.17 1010.34 1010.49 1010.62 1010.73 1010.85 1010.98 1011.12 1011.29 1011.49 1011.71 1011.95 1012.20 1012.46 1012.73 1012.98 1013.24 1013.48
1004.67 1005.01 1005.43 1005.90 1006.41 1006.93 1007.42 1007.85 1008.21 1008.49 1008.66 1008.75 1008.76 1008.71 1008.62 1008.52 1008.42 1008.36 1008.34 1008.36 1008.43 1008.53 1008.65 1008.78 1008.91 1009.03 1009.14 1009.25 1009.34 1009.45 1009.58 1009.73 1009.91 1010.13 1010.37 1010.65 1010.94 1011.24 1011.54 1011.85 1012.15 1012.44 1012.73
1004.91 1005.25 1005.65 1006.09 1006.55 1006.99 1007.38 1007.70 1007.95 1008.11 1008.18 1008.17 1008.10 1008.00 1007.87 1007.74 1007.63 1007.56 1007.51 1007.51 1007.53 1007.58 1007.64 1007.70 1007.76 1007.81 1007.86 1007.92 1007.99 1008.08 1008.22 1008.39 1008.60 1008.86 1009.15 1009.47 1009.80 1010.14 1010.49 1010.84 1011.18 1011.52 1011.86
1004.91 1005.25 1005.64 1006.05 1006.46 1006.84 1007.16 1007.40 1007.57 1007.64 1007.64 1007.57 1007.45 1007.31 1007.15 1007.00 1006.87 1006.77 1006.70 1006.65 1006.62 1006.60 1006.59 1006.57 1006.56 1006.54 1006.54 1006.56 1006.61 1006.70 1006.84 1007.03 1007.27 1007.56 1007.88 1008.23 1008.59 1008.97 1009.34 1009.72 1010.10 1010.49 1010.88
1004.75 1005.07 1005.44 1005.83 1006.21 1006.55 1006.82 1007.02 1007.14 1007.17 1007.13 1007.03 1006.88 1006.71 1006.53 1006.36 1006.20 1006.05 1005.93 1005.82 1005.73 1005.63 1005.54 1005.45 1005.37 1005.30 1005.25 1005.24 1005.28 1005.36 1005.51 1005.72 1005.97 1006.28 1006.61 1006.98 1007.36 1007.74 1008.14 1008.53 1008.94 1009.36 1009.80
1004.50 1004.80 1005.15 1005.52 1005.88 1006.20 1006.45 1006.63 1006.73 1006.76 1006.70 1006.59 1006.43 1006.25 1006.04 1005.84 1005.64 1005.44 1005.25 1005.07 1004.89 1004.71 1004.54 1004.38 1004.24 1004.12 1004.04 1004.02 1004.05 1004.14 1004.29 1004.50 1004.77 1005.07 1005.41 1005.77 1006.14 1006.52 1006.91 1007.31 1007.73 1008.17 1008.65
1004.25 1004.53 1004.86 1005.22 1005.56 1005.87 1006.12 1006.30 1006.41 1006.44 1006.39 1006.28 1006.12 1005.92 1005.70 1005.46 1005.20 1004.94 1004.68 1004.41 1004.15 1003.89 1003.65 1003.42 1003.23 1003.08 1002.99 1002.95 1002.98 1003.07 1003.23 1003.44 1003.70 1003.99 1004.31 1004.64 1004.98 1005.34 1005.70 1006.09 1006.51 1006.96 1007.45
1004.08 1004.33 1004.64 1004.97 1005.30 1005.61 1005.86 1006.05 1006.17 1006.22 1006.18 1006.09 1005.93 1005.72 1005.47 1005.19 1004.88 1004.56 1004.22 1003.88 1003.54 1003.21 1002.91 1002.64 1002.41 1002.24 1002.13 1002.09 1002.12 1002.22 1002.37 1002.57 1002.81 1003.07 1003.34 1003.63 1003.93 1004.24 1004.57 1004.93 1005.34 1005.78 1006.28
1003.99 1004.23 1004.51 1004.82 1005.14 1005.43 1005.69 1005.89 1006.02 1006.07 1006.06 1005.97 1005.82 1005.61 1005.34 1005.03 1004.68 1004.30 1003.90 1003.50 1003.10 1002.73 1002.38 1002.07 1001.83 1001.65 1001.53 1001.49 1001.52 1001.61 1001.74 1001.91 1002.11 1002.32 1002.54 1002.77 1003.01 1003.27 1003.56 1003.88 1004.26 1004.69 1005.19
1004.01 1004.23 1004.49 1004.78 1005.08 1005.36 1005.60 1005.80 1005.93 1006.00 1006.00 1005.93 1005.78 1005.57 1005.29 1004.96 1004.59 1004.18 1003.75 1003.31 1002.88 1002.47 1002.10 1001.79 1001.53 1001.34 1001.22 1001.17 1001.18 1001.25 1001.35 1001.47 1001.61 1001.76 1001.92 1002.08 1002.25 1002.45 1002.69 1002.97 1003.32 1003.74 1004.22
Thickness
5793 5790 5785 5782 5779 5775 5770 5767 5763 5759 5755 5751 5747 5743 5740 5737 5734 5731 5727 5725 5721 5719 5717 5715 5712 5710 5708 5707 5706 5705 5702 5698 5692 5692 5694 5696 5695 5695 5696 5696 5695 5695 5694
5790 5786 5782 5778 5774 5770 5766 5763 5760 5755 5752 5748 5743 5739 5736 5732 5729 5726 5723 5720 5717 5714 5712 5709 5707 5706 5703 5701 5700 5698 5697 5695 5690 5687 5687 5688 5688 5689 5689 5689 5690 5689 5689
5785 5780 5775 5771 5768 5765 5762 5758 5755 5751 5747 5743 5739 5734 5731 5727 5724 5721 5718 5715 5712 5710 5707 5704 5702 5699 5696 5695 5693 5692 5691 5690 5687 5683 5681 5681 5682 5682 5682 5682 5683 5682 5683
5778 5774 5769 5765 5763 5760 5757 5754 5750 5746 5741 5737 5733 5729 5726 5723 5719 5716 5713 5710 5707 5705 5703 5700 5698 5695 5692 5690 5688 5686 5685 5682 5680 5677 5674 5674 5674 5675 5674 5672 5672 5673 5675
5772 5768 5764 5762 5759 5756 5752 5748 5745 5741 5736 5731 5728 5724 5721 5718 5715 5711 5708 5705 5702 5699 5697 5695 5694 5692 5690 5688 5685 5682 5679 5676 5673 5670 5668 5667 5666 5666 5666 5666 5665 5665 5666
5766 5762 5759 5756 5753 5749 5746 5743 5738 5734 5730 5726 5722 5718 5715 5713 5710 5707 5704 5700 5697 5694 5691 5689 5688 5687 5685 5683 5682 5679 5676 5672 5668 5665 5663 5661 5661 5661 5661 5661 5658 5656 5655
5761 5757 5754 5751 5747 5744 5741 5736 5732 5727 5724 5720 5717 5713 5709 5707 5705 5702 5699 5696 5692 5689 5686 5684 5683 5682 5679 5676 5675 5674 5672 5670 5668 5663 5659 5658 5657 5657 5655 5654 5652 5651 5651
5754 5751 5748 5745 5741 5737 5734 5730 5726 5723 5718 5714 5711 5708 5704 5702 5699 5697 5694 5690 5687 5684 5682 5679 5676 5674 5673 5671 5668 5666 5665 5664 5662 5660 5658 5656 5656 5655 5652 5650 5648 5646 5646
5747 5745 5742 5739 5735 5731 5727 5723 5720 5716 5712 5708 5706 5703 5699 5696 5694 5691 5688 5683 5680 5677 5676 5674 5672 5669 5667 5665 5662 5658 5657 5656 5657 5656 5654 5653 5651 5650 5649 5645 5641 5637 5636
5741 5739 5736 5733 5728 5724 5721 5717 5713 5710 5706 5703 5699 5697 5694 5691 5689 5687 5683 5678 5674 5671 5670 5668 5667 5665 5662 5659 5656 5653 5650 5649 5649 5648 5647 5646 5645 5645 5644 5641 5637 5633 5630
5735 5732 5729 5725 5721 5717 5714 5710 5707 5703 5699 5695 5692 5690 5687 5686 5684 5681 5677 5673 5669 5666 5663 5662 5661 5660 5658 5655 5652 5649 5647 5646 5643 5641 5640 5639 5638 5638 5637 5636 5634 5631 5627
5726 5722 5720 5717 5714 5711 5705 5702 5699 5694 5690 5687 5683 5681 5680 5679 5677 5675 5672 5669 5666 5661 5659 5658 5657 5655 5653 5650 5647 5646 5643 5641 5638 5635 5633 5632 5631 5630 5631 5630 5629 5628 5627
5716 5713 5710 5708 5705 5701 5697 5692 5688 5685 5681 5677 5674 5672 5671 5671 5669 5668 5666 5663 5661 5657 5655 5654 5652 5650 5647 5645 5643 5640 5637 5634 5631 5628 5627 5627 5626 5626 5625 5624 5623 5622 5621
5706 5703 5701 5698 5694 5690 5688 5684 5680 5676 5673 5670 5667 5664 5663 5661 5660 5659 5657 5655 5653 5651 5648 5647 5645 5643 5641 5639 5637 5634 5632 5629 5626 5624 5622 5621 5620 5619 5618 5617 5615 5614 5612
5696 5693 5690 5687 5684 5680 5677 5675 5673 5670 5667 5664 5661 5660 5657 5654 5655 5654 5651 5648 5646 5644 5641 5638 5635 5633 5631 5630 5628 5627 5625 5623 5620 5619 5617 5615 5613 5612 5611 5610 5608 5606 5604
5685 5682 5680 5677 5673 5670 5667 5664 5664 5662 5660 5658 5657 5655 5653 5652 5650 5647 5644 5642 5639 5636 5632 5629 5627 5625 5624 5623 5622 5620 5618 5617 5615 5613 5611 5609 5608 5606 5605 5604 5602 5600 5599
5674 5672 5670 5667 5664 5661 5658 5655 5653 5652 5652 5650 5648 5647 5645 5643 5641 5638 5635 5633 5630 5627 5624 5623 5622 5620 5618 5617 5616 5614 5613 5612 5610 5608 5606 5605 5603 5601 5600 5598 5597 5595 5594
5664 5663 5660 5657 5655 5652 5650 5648 5645 5643 5640 5639 5639 5637 5635 5633 5631 5629 5626 5623 5620 5618 5618 5617 5616 5615 5614 5612 5611 5609 5608 5606 5605 5603 5602 5600 5599 5597 5595 5593 5592 5591 5590
5653 5652 5651 5649 5646 5644 5642 5640 5638 5635 5633 5630 5629 5627 5626 5624 5621 5619 5616 5613 5613 5613 5612 5612 5611 5610 5609 5608 5606 5605 5603 5601 5600 5599 5597 5596 5594 5592 5590 5589 5588 5587 5585
5643 5644 5643 5640 5638 5636 5634 5631 5629 5627 5624 5621 5620 5618 5615 5612 5610 5608 5607 5606 5606 5606 5607 5607 5607 5606 5605 5604 5602 5601 5599 5597 5596 5594 5593 5591 5589 5588 5586 5585 5583 5582 5581
5634 5633 5634 5631 5629 5627 5625 5623 5621 5618 5615 5613 5612 5611 5608 5605 5603 5602 5601 5600 5600 5601 5601 5602 5601 5601 5600 5599 5598 5596 5594 5593 5591 5590 5589 5587 5585 5583 5582 5581 5579 5578 5577
5625 5623 5623 5621 5620 5618 5616 5614 5612 5610 5608 5605 5604 5602 5600 5597 5596 5596 5595 5596 5596 5596 5596 5596 5596 5596 5596 5594 5593 5591 5590 5588 5587 5586 5584 5583 5582 5580 5579 5577 5576 5574 5573
5615 5614 5613 5612 5611 5609 5607 5605 5603 5601 5599 5597 5595 5594 5592 5590 5589 5589 5589 5590 5590 5590 5591 5590 5590 5590 5590 5589 5588 5587 5585 5584 5584 5582 5580 5579 5578 5576 5574 5573 5572 5570 5569
5607 5605 5603 5602 5601 5599 5598 5596 5594 5593 5591 5589 5588 5586 5584 5583 5583 5583 5583 5583 5583 5583 5584 5584 5584 5584 5584 5583 5583 5582 5581 5581 5580 5579 5578 5576 5575 5573 5571 5569 5568 5567 5566
5597 5596 5594 5593 5592 5591 5589 5588 5586 5585 5583 5582 5580 5578 5577 5576 5576 5576 5576 5576 5576 5576 5576 5577 5577 5578 5578 5578 5577 5577 5576 5576 5575 5575 5574 5572 5571 5570 5568 5567 5565 5564 5563
5588 5586 5585 5584 5583 5582 5581 5580 5578 5577 5575 5574 5573 5571 5570 5569 5569 5569 5569 5569 5568 5569 5569 5569 5570 5570 5570 5570 5570 5570 5570 5569 5569 5569 5568 5568 5567 5566 5565 5563 5563 5561 5560